Time,TemperatureF,DewpointF,PressureIn,WindDirection,WindDirectionDegrees,WindSpeedMPH,WindSpeedGustMPH,Humidity,HourlyPrecipIn,Conditions,Clouds,dailyrainin,SoftwareType,DateUTC
2013-07-02 00:03:00,68.1,67.0,30.15,WSW,245,1.0,5.0,96,0.00,,,0.11,weatherlink.com 1.10,2013-07-02 04:03:00,
2013-07-02 00:19:00,68.1,67.0,30.15,SSW,212,0.0,4.0,95,0.00,,,0.11,weatherlink.com 1.10,2013-07-02 04:19:00,
2013-07-02 00:34:00,68.4,67.0,30.15,SSW,193,3.0,8.0,96,0.00,,,0.11,weatherlink.com 1.10,2013-07-02 04:34:00,
2013-07-02 00:49:00,68.5,67.0,30.15,SSE,161,2.0,7.0,96,0.00,,,0.11,weatherlink.com 1.10,2013-07-02 04:49:00,
2013-07-02 01:04:00,68.5,67.0,30.15,SSW,212,1.0,6.0,96,0.00,,,0.11,weatherlink.com 1.10,2013-07-02 05:04:00,
2013-07-02 01:19:00,68.5,67.0,30.15,SSW,198,1.0,5.0,96,0.00,,,0.11,weatherlink.com 1.10,2013-07-02 05:19:00,
2013-07-02 01:34:00,68.5,67.0,30.15,SE,145,3.0,7.0,96,0.00,,,0.11,weatherlink.com 1.10,2013-07-02 05:34:00,
2013-07-02 01:49:00,68.8,68.0,30.15,SSE,167,1.0,6.0,96,0.00,,,0.11,weatherlink.com 1.10,2013-07-02 05:49:00,
2013-07-02 02:04:00,69.1,68.0,30.15,SW,231,3.0,8.0,96,0.00,,,0.11,weatherlink.com 1.10,2013-07-02 06:04:00,
2013-07-02 02:19:00,69.4,68.0,30.15,SSW,194,2.0,5.0,96,0.00,,,0.11,weatherlink.com 1.10,2013-07-02 06:19:00,
2013-07-02 02:34:00,69.6,69.0,30.15,South,188,2.0,7.0,96,0.01,,,0.12,weatherlink.com 1.10,2013-07-02 06:34:00,
2013-07-02 02:49:00,70.0,69.0,30.15,SSW,194,3.0,6.0,96,0.01,,,0.12,weatherlink.com 1.10,2013-07-02 06:49:00,
2013-07-02 03:04:00,69.8,69.0,30.15,SSW,211,1.0,6.0,96,0.01,,,0.12,weatherlink.com 1.10,2013-07-02 07:04:00,
2013-07-02 03:19:00,69.6,69.0,30.15,South,172,1.0,5.0,96,0.01,,,0.12,weatherlink.com 1.10,2013-07-02 07:19:00,
2013-07-02 03:34:00,69.7,69.0,30.15,SW,219,0.0,5.0,97,0.00,,,0.12,weatherlink.com 1.10,2013-07-02 07:34:00,
2013-07-02 03:49:00,69.7,69.0,30.16,WSW,249,2.0,10.0,97,0.00,,,0.00,weatherlink.com 1.10,2013-07-02 07:49:00,
2013-07-02 04:04:00,69.7,69.0,30.16,NW,312,1.0,8.0,97,0.01,,,0.01,weatherlink.com 1.10,2013-07-02 08:04:00,
2013-07-02 04:19:00,70.4,70.0,30.16,SW,232,3.0,7.0,97,0.01,,,0.01,weatherlink.com 1.10,2013-07-02 08:19:00,
2013-07-02 04:34:00,70.4,70.0,30.16,SSW,196,1.0,6.0,97,0.01,,,0.01,weatherlink.com 1.10,2013-07-02 08:34:00,
2013-07-02 04:49:00,70.1,69.0,30.16,ESE,109,0.0,7.0,96,0.01,,,0.01,weatherlink.com 1.10,2013-07-02 08:49:00,
2013-07-02 05:04:00,69.8,69.0,30.17,SSE,155,2.0,5.0,97,0.01,,,0.02,weatherlink.com 1.10,2013-07-02 09:04:00,
2013-07-02 05:19:00,69.6,69.0,30.17,West,277,0.0,5.0,96,0.01,,,0.02,weatherlink.com 1.10,2013-07-02 09:19:00,
2013-07-02 05:34:00,69.6,69.0,30.18,SSW,206,0.0,5.0,97,0.01,,,0.02,weatherlink.com 1.10,2013-07-02 09:34:00,
2013-07-02 05:49:00,69.9,69.0,30.18,South,184,2.0,8.0,97,0.01,,,0.02,weatherlink.com 1.10,2013-07-02 09:49:00,
2013-07-02 06:04:00,69.8,69.0,30.19,SW,217,3.0,7.0,97,0.00,,,0.02,weatherlink.com 1.10,2013-07-02 10:04:00,
2013-07-02 06:19:00,69.7,69.0,30.19,SE,124,3.0,7.0,97,0.00,,,0.02,weatherlink.com 1.10,2013-07-02 10:19:00,
2013-07-02 06:34:00,70.2,69.0,30.20,South,188,2.0,5.0,97,0.01,,,0.03,weatherlink.com 1.10,2013-07-02 10:34:00,
2013-07-02 06:49:00,71.1,70.0,30.20,South,186,1.0,11.0,97,0.01,,,0.03,weatherlink.com 1.10,2013-07-02 10:49:00,
2013-07-02 07:04:00,71.4,71.0,30.20,South,182,0.0,5.0,97,0.01,,,0.03,weatherlink.com 1.10,2013-07-02 11:04:00,
2013-07-02 07:19:00,71.0,70.0,30.20,SSE,162,1.0,6.0,97,0.01,,,0.03,weatherlink.com 1.10,2013-07-02 11:19:00,
2013-07-02 07:34:00,71.1,70.0,30.20,West,263,1.0,5.0,97,0.01,,,0.04,weatherlink.com 1.10,2013-07-02 11:34:00,
2013-07-02 07:49:00,71.1,70.0,30.20,SSE,166,1.0,5.0,97,0.01,,,0.04,weatherlink.com 1.10,2013-07-02 11:49:00,
2013-07-02 08:04:00,71.1,70.0,30.20,SW,231,2.0,9.0,97,0.01,,,0.04,weatherlink.com 1.10,2013-07-02 12:04:00,
2013-07-02 08:19:00,71.2,70.0,30.20,South,173,1.0,8.0,97,0.01,,,0.04,weatherlink.com 1.10,2013-07-02 12:19:00,
2013-07-02 08:34:00,71.0,70.0,30.20,SE,124,2.0,6.0,97,0.00,,,0.04,weatherlink.com 1.10,2013-07-02 12:34:00,
2013-07-02 08:49:00,70.9,70.0,30.21,SW,221,2.0,5.0,96,0.00,,,0.04,weatherlink.com 1.10,2013-07-02 12:49:00,
2013-07-02 09:04:00,71.2,70.0,30.20,SSE,161,1.0,11.0,97,0.01,,,0.05,weatherlink.com 1.10,2013-07-02 13:04:00,
2013-07-02 09:19:00,71.8,71.0,30.20,SW,236,2.0,7.0,97,0.01,,,0.05,weatherlink.com 1.10,2013-07-02 13:19:00,
2013-07-02 09:34:00,72.9,72.0,30.20,SSW,205,0.0,8.0,96,0.01,,,0.05,weatherlink.com 1.10,2013-07-02 13:34:00,
2013-07-02 09:49:00,73.3,72.0,30.20,WSW,238,4.0,11.0,95,0.01,,,0.05,weatherlink.com 1.10,2013-07-02 13:49:00,
2013-07-02 10:04:00,72.9,71.0,30.21,SW,221,2.0,6.0,94,0.01,,,0.06,weatherlink.com 1.10,2013-07-02 14:04:00,
2013-07-02 10:19:00,73.8,72.0,30.21,SW,223,2.0,7.0,95,0.01,,,0.06,weatherlink.com 1.10,2013-07-02 14:19:00,
2013-07-02 10:35:00,75.1,73.0,30.21,SSW,207,1.0,10.0,93,0.01,,,0.06,weatherlink.com 1.10,2013-07-02 14:35:00,
2013-07-02 10:50:00,76.7,74.0,30.21,SW,222,2.0,9.0,90,0.01,,,0.06,weatherlink.com 1.10,2013-07-02 14:50:00,
2013-07-02 11:05:00,77.5,74.0,30.21,West,272,8.0,8.0,88,0.00,,,0.06,weatherlink.com 1.10,2013-07-02 15:05:00,
2013-07-02 11:20:00,77.3,74.0,30.21,NNW,340,2.0,8.0,89,0.00,,,0.06,weatherlink.com 1.10,2013-07-02 15:20:00,
2013-07-02 11:35:00,76.8,73.0,30.21,ENE,72,2.0,12.0,88,0.01,,,0.07,weatherlink.com 1.10,2013-07-02 15:35:00,
2013-07-02 11:50:00,75.6,72.0,30.21,SSE,160,1.0,7.0,89,0.01,,,0.07,weatherlink.com 1.10,2013-07-02 15:50:00,
2013-07-02 12:05:00,76.4,73.0,30.21,West,264,2.0,9.0,90,0.01,,,0.07,weatherlink.com 1.10,2013-07-02 16:05:00,
2013-07-02 12:20:00,77.6,73.0,30.21,North,349,1.0,7.0,86,0.01,,,0.07,weatherlink.com 1.10,2013-07-02 16:20:00,
2013-07-02 12:35:00,78.3,74.0,30.21,WSW,257,5.0,8.0,85,0.00,,,0.07,weatherlink.com 1.10,2013-07-02 16:35:00,
2013-07-02 12:50:00,78.8,74.0,30.21,NW,319,4.0,10.0,85,0.00,,,0.07,weatherlink.com 1.10,2013-07-02 16:50:00,
2013-07-02 13:05:00,78.2,73.0,30.21,WSW,249,3.0,10.0,85,0.00,,,0.07,weatherlink.com 1.10,2013-07-02 17:05:00,
2013-07-02 13:20:00,77.7,73.0,30.22,WNW,295,2.0,6.0,85,0.00,,,0.07,weatherlink.com 1.10,2013-07-02 17:20:00,
2013-07-02 13:35:00,77.7,73.0,30.21,SSE,158,1.0,8.0,86,0.00,,,0.07,weatherlink.com 1.10,2013-07-02 17:35:00,
2013-07-02 13:50:00,77.4,73.0,30.21,South,176,1.0,9.0,86,0.00,,,0.07,weatherlink.com 1.10,2013-07-02 17:50:00,
2013-07-02 14:05:00,78.0,73.0,30.21,South,186,4.0,8.0,85,0.00,,,0.07,weatherlink.com 1.10,2013-07-02 18:05:00,
2013-07-02 14:20:00,78.2,73.0,30.21,SE,125,2.0,7.0,85,0.00,,,0.07,weatherlink.com 1.10,2013-07-02 18:20:00,
2013-07-02 14:35:00,77.7,73.0,30.21,SE,143,1.0,7.0,86,0.00,,,0.07,weatherlink.com 1.10,2013-07-02 18:35:00,
2013-07-02 14:50:00,77.1,72.0,30.20,South,185,4.0,6.0,85,0.00,,,0.07,weatherlink.com 1.10,2013-07-02 18:50:00,
2013-07-02 15:05:00,75.4,72.0,30.20,ESE,122,2.0,7.0,88,0.00,,,0.07,weatherlink.com 1.10,2013-07-02 19:05:00,
2013-07-02 15:20:00,73.9,71.0,30.20,SSW,192,1.0,5.0,90,0.00,,,0.07,weatherlink.com 1.10,2013-07-02 19:20:00,
2013-07-02 15:35:00,73.4,71.0,30.20,SW,219,4.0,6.0,91,0.00,,,0.07,weatherlink.com 1.10,2013-07-02 19:35:00,
2013-07-02 15:50:00,73.2,71.0,30.19,SE,146,4.0,6.0,91,0.00,,,0.07,weatherlink.com 1.10,2013-07-02 19:50:00,
2013-07-02 16:05:00,73.5,71.0,30.19,SSE,163,1.0,5.0,91,0.00,,,0.07,weatherlink.com 1.10,2013-07-02 20:05:00,
2013-07-02 16:20:00,73.4,71.0,30.19,South,186,1.0,7.0,92,0.00,,,0.07,weatherlink.com 1.10,2013-07-02 20:20:00,
2013-07-02 16:35:00,73.2,71.0,30.19,SSW,198,3.0,5.0,91,0.00,,,0.07,weatherlink.com 1.10,2013-07-02 20:35:00,
2013-07-02 16:50:00,72.1,70.0,30.19,SSE,148,3.0,15.0,92,0.00,,,0.07,weatherlink.com 1.10,2013-07-02 20:50:00,
2013-07-02 17:05:00,72.9,71.0,30.19,SSW,202,3.0,6.0,92,0.00,,,0.07,weatherlink.com 1.10,2013-07-02 21:05:00,
2013-07-02 17:20:00,73.7,71.0,30.19,WSW,252,0.0,8.0,91,0.00,,,0.07,weatherlink.com 1.10,2013-07-02 21:20:00,
2013-07-02 17:35:00,73.8,71.0,30.20,West,275,2.0,6.0,90,0.00,,,0.07,weatherlink.com 1.10,2013-07-02 21:35:00,
2013-07-02 17:50:00,73.8,71.0,30.20,East,91,3.0,6.0,90,0.00,,,0.07,weatherlink.com 1.10,2013-07-02 21:50:00,
2013-07-02 18:05:00,73.6,71.0,30.20,SSE,149,0.0,4.0,90,0.00,,,0.07,weatherlink.com 1.10,2013-07-02 22:05:00,
2013-07-02 18:20:00,73.4,70.0,30.21,SE,124,1.0,4.0,90,0.00,,,0.07,weatherlink.com 1.10,2013-07-02 22:20:00,
2013-07-02 18:35:00,73.5,70.0,30.21,South,188,1.0,4.0,89,0.00,,,0.07,weatherlink.com 1.10,2013-07-02 22:35:00,
2013-07-02 18:50:00,73.1,70.0,30.22,East,87,2.0,4.0,90,0.00,,,0.07,weatherlink.com 1.10,2013-07-02 22:50:00,
2013-07-02 19:05:00,72.6,70.0,30.22,SW,227,3.0,4.0,91,0.00,,,0.07,weatherlink.com 1.10,2013-07-02 23:05:00,
2013-07-02 19:20:00,72.0,70.0,30.23,South,184,0.0,6.0,92,0.00,,,0.07,weatherlink.com 1.10,2013-07-02 23:20:00,
2013-07-02 19:35:00,71.8,70.0,30.23,South,170,0.0,7.0,93,0.00,,,0.07,weatherlink.com 1.10,2013-07-02 23:35:00,
2013-07-02 19:50:00,71.6,70.0,30.23,SE,135,0.0,6.0,93,0.00,,,0.07,weatherlink.com 1.10,2013-07-02 23:50:00,
2013-07-02 20:05:00,71.2,69.0,30.23,SSE,165,2.0,4.0,93,0.00,,,0.07,weatherlink.com 1.10,2013-07-03 00:05:00,
2013-07-02 20:20:00,70.8,69.0,30.23,SSE,159,1.0,4.0,93,0.00,,,0.07,weatherlink.com 1.10,2013-07-03 00:20:00,
2013-07-02 20:35:00,70.4,69.0,30.23,South,173,2.0,5.0,94,0.00,,,0.07,weatherlink.com 1.10,2013-07-03 00:35:00,
2013-07-02 20:50:00,70.1,68.0,30.23,SSE,150,1.0,4.0,94,0.00,,,0.07,weatherlink.com 1.10,2013-07-03 00:50:00,
2013-07-02 21:05:00,70.1,69.0,30.24,West,262,1.0,3.0,95,0.00,,,0.07,weatherlink.com 1.10,2013-07-03 01:05:00,
2013-07-02 21:20:00,70.2,69.0,30.24,West,267,0.0,5.0,95,0.00,,,0.07,weatherlink.com 1.10,2013-07-03 01:20:00,
2013-07-02 21:35:00,70.4,69.0,30.24,WSW,241,0.0,7.0,95,0.00,,,0.07,weatherlink.com 1.10,2013-07-03 01:35:00,
2013-07-02 21:50:00,70.3,69.0,30.25,South,170,2.0,5.0,95,0.00,,,0.07,weatherlink.com 1.10,2013-07-03 01:50:00,
2013-07-02 22:05:00,70.3,69.0,30.25,West,268,0.0,5.0,95,0.00,,,0.07,weatherlink.com 1.10,2013-07-03 02:05:00,
2013-07-02 22:21:00,70.1,69.0,30.25,SSE,158,1.0,4.0,95,0.00,,,0.07,weatherlink.com 1.10,2013-07-03 02:21:00,
2013-07-02 22:50:00,70.1,69.0,30.24,South,182,1.0,5.0,95,0.00,,,0.07,weatherlink.com 1.10,2013-07-03 02:50:00,
2013-07-02 23:05:00,70.2,69.0,30.24,East,98,1.0,7.0,95,0.00,,,0.07,weatherlink.com 1.10,2013-07-03 03:05:00,
2013-07-02 23:20:00,70.2,69.0,30.24,SSW,209,0.0,7.0,95,0.00,,,0.07,weatherlink.com 1.10,2013-07-03 03:20:00,
2013-07-02 23:35:00,70.8,70.0,30.23,SSE,157,0.0,6.0,96,0.00,,,0.07,weatherlink.com 1.10,2013-07-03 03:35:00,